Location: Newark
(39.0622°N, 106.5590°E)
Time: 21:22:31
(UTC+00:00)

Courier 1B - All Passes

Search period start: 24 January 2020 00:00
Search period end: 03 February 2020 00:00
Orbit: 962 x 1209 km, 28.3° (Epoch: 24 January)

Date Brightness Start Highest point End Pass type
(mag) Time Alt. Az. Time Alt. Az. Time Alt. Az.
24 Jan - 00:55:57 10° WSW 01:01:46 23° SSW 01:07:36 10° SSE daylight
24 Jan - 18:23:34 10° S 18:27:39 16° SSE 18:31:52 10° ESE night (unlit)
24 Jan - 20:14:36 10° SW 20:20:53 31° SSE 20:27:26 10° ESE visible
24 Jan - 22:07:41 10° WSW 22:14:27 37° S 22:21:28 10° ESE visible
25 Jan - 00:01:48 10° WSW 00:08:02 27° SSW 00:14:21 10° SE daylight
25 Jan - 01:58:51 10° SW 02:01:19 12° SSW 02:03:46 10° S daylight
25 Jan - 17:31:50 10° S 17:34:08 12° SSE 17:36:27 10° SE night (unlit)
25 Jan - 19:21:21 10° SW 19:27:11 27° SSE 19:33:19 10° ESE visible
25 Jan - 21:14:02 10° WSW 21:20:41 37° S 21:27:37 10° ESE visible
25 Jan - 23:07:50 10° WSW 23:14:17 30° SSW 23:20:55 10° SE visible
26 Jan - 01:03:24 10° WSW 01:07:40 16° SSW 01:11:56 10° S daylight
26 Jan - 18:28:18 10° SSW 18:33:34 23° SSE 18:39:04 10° ESE night (unlit)
26 Jan - 20:20:30 10° WSW 20:26:56 35° S 20:33:42 10° ESE visible
26 Jan - 22:14:00 10° WSW 22:20:32 33° S 22:27:19 10° SE visible
27 Jan - 00:08:48 10° WSW 00:13:59 20° SSW 00:19:14 10° SSE daylight
27 Jan - 17:35:31 10° SSW 17:40:00 18° SSE 17:44:39 10° ESE night (unlit)
27 Jan - 19:27:05 10° SW 19:33:14 33° S 19:39:44 10° ESE visible
27 Jan - 21:20:16 10° WSW 21:26:46 35° S 21:33:36 10° ESE visible
27 Jan - 23:14:34 10° WSW 23:20:17 23° SSW 23:26:09 10° SSE visible
28 Jan - 16:43:12 10° S 16:46:29 14° SSE 16:49:51 10° SE night (unlit)
28 Jan - 18:33:46 10° SW 18:39:34 29° SSE 18:45:41 10° ESE night (unlit)
28 Jan - 20:26:39 10° WSW 20:33:03 36° S 20:39:47 10° ESE visible
28 Jan - 22:20:34 10° WSW 22:26:35 27° SSW 22:32:48 10° SE visible
29 Jan - 00:17:06 10° SW 00:19:53 12° SSW 00:22:41 10° S daylight
29 Jan - 17:40:38 10° SW 17:45:59 25° SSE 17:51:35 10° ESE night (unlit)
29 Jan - 19:33:06 10° WSW 19:39:20 35° S 19:45:55 10° ESE visible
29 Jan - 21:26:43 10° WSW 21:32:52 30° SSW 21:39:16 10° SE visible
29 Jan - 23:22:00 10° WSW 23:26:14 16° SSW 23:30:32 10° S visible
30 Jan - 16:47:41 10° SSW 16:52:26 21° SSE 16:57:21 10° ESE night (unlit)
30 Jan - 18:39:40 10° SW 18:45:40 33° S 18:52:01 10° ESE night (unlit)
30 Jan - 20:33:00 10° WSW 20:39:09 32° S 20:45:39 10° SE visible
30 Jan - 22:27:35 10° WSW 22:32:34 19° SSW 22:37:43 10° SSE visible
31 Jan - 15:55:01 10° SSW 15:58:55 16° SSE 16:02:55 10° ESE night (unlit)
31 Jan - 17:46:19 10° SW 17:52:03 30° S 17:58:04 10° ESE night (unlit)
31 Jan - 19:39:22 10° WSW 19:45:28 34° S 19:51:55 10° ESE visible
31 Jan - 21:33:29 10° WSW 21:38:54 23° SSW 21:44:33 10° SSE visible
01 Feb - 15:02:58 10° S 15:05:27 12° SSE 15:07:58 10° SE night (unlit)
01 Feb - 16:53:04 10° SW 16:58:28 27° SSE 17:04:04 10° ESE night (unlit)
01 Feb - 18:45:49 10° WSW 18:51:48 34° S 18:58:08 10° ESE night (unlit)
01 Feb - 20:39:35 10° WSW 20:45:15 26° SSW 20:51:10 10° SE visible
01 Feb - 22:35:51 10° SW 22:38:31 12° SSW 22:41:13 10° S visible
02 Feb - 15:59:58 10° SSW 16:04:56 23° SSE 16:10:02 10° ESE night (unlit)
02 Feb - 17:52:20 10° WSW 17:58:11 33° S 18:04:19 10° ESE night (unlit)
02 Feb - 19:45:49 10° WSW 19:51:35 29° S 19:57:39 10° SE visible
02 Feb - 21:40:55 10° WSW 21:44:54 16° SSW 21:48:58 10° S visible
